Hourly Weather Rus Qishloq

Today, 19 April, Monday

Time Temperature Precipitation Wind Pressure Humidity
00:00 +15°C° 0 mm 2 mps 705 mmHg 52%
01:00 +14°C° 0 mm 3 mps 705 mmHg 51%
02:00 +14°C° 0 mm 3 mps 704 mmHg 50%
03:00 +14°C° 0 mm 3 mps 704 mmHg 50%
04:00 +14°C° 0 mm 3 mps 704 mmHg 48%
05:00 +16°C° 0 mm 2 mps 704 mmHg 47%
06:00 +17°C° 0 mm 2 mps 704 mmHg 45%
07:00 +20°C° 0 mm 1 mps 704 mmHg 43%
08:00 +21°C° 0 mm 1 mps 704 mmHg 39%
09:00 +22°C° 0 mm 1 mps 704 mmHg 34%
10:00 +24°C° 0 mm 2 mps 703 mmHg 29%
11:00 +24°C° 0 mm 2 mps 703 mmHg 28%
12:00 +25°C° 0 mm 2 mps 703 mmHg 28%
13:00 +25°C° 0 mm 2 mps 702 mmHg 27%
14:00 +25°C° 0 mm 2 mps 702 mmHg 28%
15:00 +25°C° 0 mm 3 mps 702 mmHg 29%
16:00 +25°C° 0 mm 3 mps 701 mmHg 30%
17:00 +23°C° 0 mm 2 mps 701 mmHg 34%
18:00 +20°C° 0 mm 2 mps 701 mmHg 38%
19:00 +20°C° 0 mm 1 mps 701 mmHg 42%
20:00 +19°C° 0 mm 1 mps 701 mmHg 43%
21:00 +19°C° 0 mm 1 mps 701 mmHg 43%
22:00 +18°C° 0 mm 1 mps 701 mmHg 44%
23:00 +18°C° 0 mm 1 mps 701 mmHg 44%

Tomorrow, 20 April, Tuesday

Time Temperature Precipitation Wind Pressure Humidity
00:00 +18°C° 0 mm 1 mps 701 mmHg 45%
01:00 +18°C° 0 mm 1 mps 701 mmHg 45%
02:00 +18°C° 0 mm 1 mps 701 mmHg 45%
03:00 +18°C° 0 mm 1 mps 701 mmHg 44%
04:00 +17°C° 0 mm 2 mps 701 mmHg 43%
05:00 +19°C° 0 mm 1 mps 701 mmHg 42%
06:00 +20°C° 0 mm 1 mps 702 mmHg 41%
07:00 +19°C° 0 mm 0 mps 702 mmHg 40%
08:00 +22°C° 0 mm 1 mps 702 mmHg 37%
09:00 +23°C° 0 mm 2 mps 702 mmHg 34%
10:00 +24°C° 0 mm 3 mps 702 mmHg 31%
11:00 +25°C° 0 mm 3 mps 702 mmHg 31%
12:00 +25°C° 0 mm 4 mps 702 mmHg 30%
13:00 +25°C° 0 mm 4 mps 702 mmHg 29%
14:00 +25°C° 0 mm 4 mps 701 mmHg 29%
15:00 +25°C° 0 mm 4 mps 701 mmHg 30%
16:00 +25°C° 0 mm 4 mps 701 mmHg 30%
17:00 +24°C° 0 mm 3 mps 701 mmHg 33%
18:00 +21°C° 0 mm 3 mps 701 mmHg 37%
19:00 +20°C° 0 mm 2 mps 701 mmHg 40%
20:00 +19°C° 0 mm 2 mps 701 mmHg 40%
21:00 +19°C° 0 mm 2 mps 701 mmHg 41%
22:00 +18°C° 0 mm 2 mps 701 mmHg 41%
23:00 +18°C° 0 mm 2 mps 701 mmHg 44%

Day after tomorrow, 21 April, Wednesday

Time Temperature Precipitation Wind Pressure Humidity
00:00 +17°C° 0 mm 2 mps 701 mmHg 46%
01:00 +16°C° 0 mm 2 mps 701 mmHg 49%
02:00 +16°C° 0 mm 1 mps 701 mmHg 52%
03:00 +15°C° 0 mm 1 mps 702 mmHg 54%
04:00 +14°C° 0 mm 1 mps 702 mmHg 57%
05:00 +15°C° 0 mm 1 mps 702 mmHg 57%
06:00 +16°C° 0 mm 1 mps 703 mmHg 56%
07:00 +18°C° 0 mm 1 mps 703 mmHg 55%
08:00 +18°C° 0 mm 2 mps 704 mmHg 52%
09:00 +19°C° 0 mm 2 mps 704 mmHg 49%
10:00 +20°C° 0 mm 3 mps 704 mmHg 46%
11:00 +21°C° 0 mm 3 mps 704 mmHg 43%
12:00 +21°C° 0 mm 3 mps 704 mmHg 41%
13:00 +22°C° 0 mm 3 mps 704 mmHg 39%
14:00 +22°C° 0 mm 3 mps 704 mmHg 38%
15:00 +21°C° 0 mm 3 mps 704 mmHg 38%
16:00 +21°C° 0 mm 3 mps 703 mmHg 38%
17:00 +19°C° 0 mm 3 mps 703 mmHg 44%
18:00 +17°C° 0 mm 3 mps 704 mmHg 50%
19:00 +15°C° 0 mm 2 mps 704 mmHg 57%
20:00 +14°C° 0 mm 2 mps 704 mmHg 58%
21:00 +14°C° 0 mm 2 mps 704 mmHg 58%
22:00 +13°C° 0 mm 2 mps 704 mmHg 59%
23:00 +11°C° 0 mm 3 mps 704 mmHg 58%

22 April, Thursday

Time Temperature Precipitation Wind Pressure Humidity
00:00 +11°C° 0 mm 3 mps 704 mmHg 58%
01:00 +10°C° 0 mm 3 mps 704 mmHg 57%
02:00 +10°C° 0 mm 3 mps 704 mmHg 58%
03:00 +10°C° 0 mm 2 mps 704 mmHg 59%
04:00 +10°C° 0 mm 2 mps 704 mmHg 61%
05:00 +12°C° 0 mm 2 mps 704 mmHg 58%
06:00 +14°C° 0 mm 2 mps 705 mmHg 55%
07:00 +15°C° 0 mm 2 mps 705 mmHg 52%
08:00 +17°C° 0 mm 2 mps 705 mmHg 46%
09:00 +18°C° 0 mm 2 mps 706 mmHg 41%
10:00 +20°C° 0 mm 2 mps 706 mmHg 35%
11:00 +21°C° 0 mm 2 mps 706 mmHg 32%
12:00 +23°C° 0 mm 2 mps 706 mmHg 30%
13:00 +23°C° 0 mm 2 mps 706 mmHg 27%
14:00 +23°C° 0 mm 2 mps 706 mmHg 27%
15:00 +23°C° 0 mm 2 mps 706 mmHg 27%
16:00 +22°C° 0 mm 3 mps 706 mmHg 27%
17:00 +19°C° 0 mm 3 mps 706 mmHg 34%
18:00 +17°C° 0 mm 3 mps 706 mmHg 40%
19:00 +13°C° 0 mm 4 mps 706 mmHg 47%
20:00 +13°C° 0 mm 3 mps 706 mmHg 47%
21:00 +12°C° 0 mm 3 mps 706 mmHg 47%
22:00 +12°C° 0 mm 3 mps 706 mmHg 47%
23:00 +12°C° 0 mm 3 mps 706 mmHg 46%

23 April, Friday

Time Temperature Precipitation Wind Pressure Humidity
00:00 +13°C° 0 mm 3 mps 705 mmHg 45%
01:00 +13°C° 0 mm 3 mps 705 mmHg 44%
02:00 +13°C° 0 mm 3 mps 705 mmHg 43%
03:00 +13°C° 0 mm 3 mps 705 mmHg 41%
04:00 +14°C° 0 mm 2 mps 705 mmHg 40%
05:00 +16°C° 0 mm 2 mps 706 mmHg 38%
06:00 +19°C° 0 mm 1 mps 706 mmHg 36%
07:00 +20°C° 0 mm 1 mps 707 mmHg 34%
08:00 +22°C° 0 mm 1 mps 707 mmHg 31%
09:00 +23°C° 0 mm 1 mps 707 mmHg 29%
10:00 +24°C° 0 mm 2 mps 707 mmHg 26%
11:00 +25°C° 0 mm 2 mps 707 mmHg 25%
12:00 +26°C° 0 mm 2 mps 707 mmHg 24%
13:00 +27°C° 0 mm 2 mps 706 mmHg 22%
14:00 +26°C° 0 mm 2 mps 706 mmHg 22%
15:00 +26°C° 0 mm 3 mps 706 mmHg 22%
16:00 +26°C° 0 mm 3 mps 705 mmHg 22%
17:00 +24°C° 0 mm 3 mps 705 mmHg 27%
18:00 +20°C° 0 mm 3 mps 705 mmHg 32%
19:00 +18°C° 0 mm 3 mps 705 mmHg 37%
20:00 +18°C° 0 mm 3 mps 705 mmHg 36%
21:00 +17°C° 0 mm 3 mps 705 mmHg 35%
22:00 +17°C° 0 mm 3 mps 705 mmHg 34%
23:00 +17°C° 0 mm 2 mps 704 mmHg 33%

24 April, Saturday

Time Temperature Precipitation Wind Pressure Humidity
00:00 +17°C° 0 mm 2 mps 704 mmHg 32%
01:00 +17°C° 0 mm 2 mps 704 mmHg 31%
02:00 +17°C° 0 mm 2 mps 703 mmHg 32%
03:00 +17°C° 0 mm 2 mps 703 mmHg 33%
04:00 +18°C° 0 mm 1 mps 703 mmHg 33%
05:00 +19°C° 0 mm 1 mps 704 mmHg 33%
06:00 +21°C° 0 mm 1 mps 704 mmHg 32%
07:00 +21°C° 0 mm 0 mps 705 mmHg 32%
08:00 +24°C° 0 mm 1 mps 705 mmHg 30%
09:00 +25°C° 0 mm 2 mps 705 mmHg 28%
10:00 +27°C° 0 mm 2 mps 705 mmHg 26%
11:00 +27°C° 0 mm 2 mps 705 mmHg 25%
12:00 +28°C° 0 mm 3 mps 705 mmHg 24%
13:00 +28°C° 0 mm 3 mps 704 mmHg 24%
14:00 +28°C° 0 mm 3 mps 704 mmHg 24%
15:00 +28°C° 0 mm 2 mps 704 mmHg 25%
16:00 +28°C° 0 mm 2 mps 704 mmHg 25%
17:00 +26°C° 0 mm 2 mps 704 mmHg 28%
18:00 +24°C° 0 mm 2 mps 704 mmHg 32%
19:00 +23°C° 0 mm 1 mps 704 mmHg 35%
20:00 +22°C° 0 mm 1 mps 704 mmHg 34%
21:00 +21°C° 0 mm 1 mps 704 mmHg 34%
22:00 +21°C° 0 mm 1 mps 704 mmHg 33%
23:00 +21°C° 0 mm 1 mps 704 mmHg 32%
Show more